Time,TemperatureF,DewpointF,PressureIn,WindDirection,WindDirectionDegrees,WindSpeedMPH,WindSpeedGustMPH,Humidity,HourlyPrecipIn,Conditions,Clouds,dailyrainin,SoftwareType,DateUTC
2013-09-17 00:00:00,65.0,53.3,30.16,East,90,8.0,13.0,66,0.00,,,0.00,Weather View 32 v70,2013-09-17 06:00:00,
2013-09-17 00:05:00,65.0,53.3,30.16,ENE,67,9.0,13.0,66,0.00,,,0.00,Weather View 32 v70,2013-09-17 06:05:00,
2013-09-17 00:10:00,65.0,53.3,30.16,ENE,67,7.0,13.0,66,0.00,,,0.00,Weather View 32 v70,2013-09-17 06:10:00,
2013-09-17 00:15:00,64.0,52.8,30.16,East,90,7.0,13.0,67,0.00,,,0.00,Weather View 32 v70,2013-09-17 06:15:00,
2013-09-17 00:20:00,64.0,52.8,30.16,East,90,5.0,11.0,67,0.00,,,0.00,Weather View 32 v70,2013-09-17 06:20:00,
2013-09-17 00:25:00,64.0,52.8,30.16,East,90,5.0,10.0,67,0.00,,,0.00,Weather View 32 v70,2013-09-17 06:25:00,
2013-09-17 00:30:00,64.0,52.8,30.16,East,90,4.0,10.0,67,0.00,,,0.00,Weather View 32 v70,2013-09-17 06:30:00,
2013-09-17 00:35:00,64.0,53.2,30.16,East,90,4.0,10.0,68,0.00,,,0.00,Weather View 32 v70,2013-09-17 06:35:00,
2013-09-17 00:40:00,64.0,53.2,30.16,East,90,5.0,10.0,68,0.00,,,0.00,Weather View 32 v70,2013-09-17 06:40:00,
2013-09-17 00:45:00,64.0,52.8,30.16,East,90,5.0,10.0,67,0.00,,,0.00,Weather View 32 v70,2013-09-17 06:45:00,
2013-09-17 00:50:00,64.0,52.8,30.16,East,90,6.0,10.0,67,0.00,,,0.00,Weather View 32 v70,2013-09-17 06:50:00,
2013-09-17 00:55:00,64.0,52.8,30.16,East,90,4.0,10.0,67,0.00,,,0.00,Weather View 32 v70,2013-09-17 06:55:00,
2013-09-17 01:00:00,64.0,52.8,30.16,ENE,67,3.0,10.0,67,0.00,,,0.00,Weather View 32 v70,2013-09-17 07:00:00,
2013-09-17 01:05:00,64.0,53.2,30.16,ENE,67,4.0,10.0,68,0.00,,,0.00,Weather View 32 v70,2013-09-17 07:05:00,
2013-09-17 01:10:00,63.0,52.6,30.16,ENE,67,2.0,10.0,69,0.00,,,0.00,Weather View 32 v70,2013-09-17 07:10:00,
2013-09-17 01:15:00,63.0,52.6,30.16,ENE,67,3.0,10.0,69,0.00,,,0.00,Weather View 32 v70,2013-09-17 07:15:00,
2013-09-17 01:20:00,63.0,53.0,30.17,ENE,67,2.0,10.0,70,0.00,,,0.00,Weather View 32 v70,2013-09-17 07:20:00,
2013-09-17 01:25:00,63.0,53.0,30.17,ENE,67,4.0,9.0,70,0.00,,,0.00,Weather View 32 v70,2013-09-17 07:25:00,
2013-09-17 01:30:00,63.0,53.0,30.17,ENE,67,3.0,9.0,70,0.00,,,0.00,Weather View 32 v70,2013-09-17 07:30:00,
2013-09-17 01:35:00,63.0,53.0,30.17,ENE,67,3.0,9.0,70,0.00,,,0.00,Weather View 32 v70,2013-09-17 07:35:00,
2013-09-17 01:40:00,62.0,52.5,30.17,ENE,67,6.0,9.0,71,0.00,,,0.00,Weather View 32 v70,2013-09-17 07:40:00,
2013-09-17 01:45:00,62.0,52.5,30.17,ENE,67,5.0,9.0,71,0.00,,,0.00,Weather View 32 v70,2013-09-17 07:45:00,
2013-09-17 01:50:00,62.0,52.1,30.17,NE,45,7.0,9.0,70,0.00,,,0.00,Weather View 32 v70,2013-09-17 07:50:00,
2013-09-17 01:55:00,62.0,52.1,30.17,ENE,67,6.0,10.0,70,0.00,,,0.00,Weather View 32 v70,2013-09-17 07:55:00,
2013-09-17 02:00:00,62.0,52.5,30.17,East,90,4.0,10.0,71,0.00,,,0.00,Weather View 32 v70,2013-09-17 08:00:00,
2013-09-17 02:05:00,62.0,52.8,30.17,East,90,7.0,10.0,72,0.00,,,0.00,Weather View 32 v70,2013-09-17 08:05:00,
2013-09-17 02:10:00,62.0,52.8,30.17,ENE,67,7.0,10.0,72,0.00,,,0.00,Weather View 32 v70,2013-09-17 08:10:00,
2013-09-17 02:15:00,62.0,52.8,30.17,ENE,67,5.0,10.0,72,0.00,,,0.00,Weather View 32 v70,2013-09-17 08:15:00,
2013-09-17 02:20:00,62.0,52.8,30.17,East,90,8.0,10.0,72,0.00,,,0.00,Weather View 32 v70,2013-09-17 08:20:00,
2013-09-17 02:25:00,61.0,51.9,30.17,ENE,67,9.0,11.0,72,0.00,,,0.00,Weather View 32 v70,2013-09-17 08:25:00,
2013-09-17 02:30:00,61.0,51.9,30.16,East,90,8.0,12.0,72,0.00,,,0.00,Weather View 32 v70,2013-09-17 08:30:00,
2013-09-17 02:35:00,61.0,51.9,30.16,East,90,5.0,12.0,72,0.00,,,0.00,Weather View 32 v70,2013-09-17 08:35:00,
2013-09-17 02:40:00,61.0,51.9,30.16,ENE,67,7.0,12.0,72,0.00,,,0.00,Weather View 32 v70,2013-09-17 08:40:00,
2013-09-17 02:45:00,61.0,52.3,30.16,ENE,67,8.0,12.0,73,0.00,,,0.00,Weather View 32 v70,2013-09-17 08:45:00,
2013-09-17 02:50:00,61.0,52.3,30.16,East,90,7.0,12.0,73,0.00,,,0.00,Weather View 32 v70,2013-09-17 08:50:00,
2013-09-17 02:55:00,61.0,52.6,30.16,East,90,7.0,13.0,74,0.00,,,0.00,Weather View 32 v70,2013-09-17 08:55:00,
2013-09-17 03:00:00,61.0,52.6,30.16,NE,45,11.0,13.0,74,0.00,,,0.00,Weather View 32 v70,2013-09-17 09:00:00,
2013-09-17 03:05:00,60.0,52.0,30.16,ENE,67,8.0,13.0,75,0.00,,,0.00,Weather View 32 v70,2013-09-17 09:05:00,
2013-09-17 03:10:00,60.0,52.0,30.16,East,90,6.0,13.0,75,0.00,,,0.00,Weather View 32 v70,2013-09-17 09:10:00,
2013-09-17 03:15:00,60.0,52.0,30.16,East,90,9.0,13.0,75,0.00,,,0.00,Weather View 32 v70,2013-09-17 09:15:00,
2013-09-17 03:20:00,60.0,51.7,30.16,ENE,67,9.0,15.0,74,0.00,,,0.00,Weather View 32 v70,2013-09-17 09:20:00,
2013-09-17 03:25:00,60.0,51.7,30.16,ENE,67,8.0,15.0,74,0.00,,,0.00,Weather View 32 v70,2013-09-17 09:25:00,
2013-09-17 03:30:00,60.0,52.0,30.16,East,90,9.0,15.0,75,0.00,,,0.00,Weather View 32 v70,2013-09-17 09:30:00,
2013-09-17 03:35:00,60.0,52.0,30.16,East,90,8.0,15.0,75,0.00,,,0.00,Weather View 32 v70,2013-09-17 09:35:00,
2013-09-17 03:40:00,60.0,52.0,30.16,ENE,67,7.0,15.0,75,0.00,,,0.00,Weather View 32 v70,2013-09-17 09:40:00,
2013-09-17 03:45:00,60.0,52.0,30.16,East,90,7.0,15.0,75,0.00,,,0.00,Weather View 32 v70,2013-09-17 09:45:00,
2013-09-17 03:50:00,60.0,52.4,30.16,ENE,67,6.0,15.0,76,0.00,,,0.00,Weather View 32 v70,2013-09-17 09:50:00,
2013-09-17 03:55:00,60.0,52.8,30.16,ENE,67,8.0,15.0,77,0.00,,,0.00,Weather View 32 v70,2013-09-17 09:55:00,
2013-09-17 04:00:00,60.0,52.8,30.16,East,90,3.0,15.0,77,0.00,,,0.00,Weather View 32 v70,2013-09-17 10:00:00,
2013-09-17 04:05:00,59.0,52.1,30.16,ENE,67,8.0,15.0,78,0.00,,,0.00,Weather View 32 v70,2013-09-17 10:05:00,
2013-09-17 04:10:00,59.0,52.5,30.16,ENE,67,10.0,15.0,79,0.00,,,0.00,Weather View 32 v70,2013-09-17 10:10:00,
2013-09-17 04:15:00,59.0,52.5,30.16,East,90,10.0,15.0,79,0.00,,,0.00,Weather View 32 v70,2013-09-17 10:15:00,
2013-09-17 04:20:00,59.0,52.5,30.16,East,90,8.0,15.0,79,0.00,,,0.00,Weather View 32 v70,2013-09-17 10:20:00,
2013-09-17 04:25:00,59.0,52.5,30.16,East,90,6.0,14.0,79,0.00,,,0.00,Weather View 32 v70,2013-09-17 10:25:00,
2013-09-17 04:30:00,59.0,52.8,30.16,East,90,8.0,14.0,80,0.00,,,0.00,Weather View 32 v70,2013-09-17 10:30:00,
2013-09-17 04:35:00,59.0,52.5,30.16,East,90,9.0,14.0,79,0.00,,,0.00,Weather View 32 v70,2013-09-17 10:35:00,
2013-09-17 04:40:00,59.0,52.1,30.16,East,90,10.0,16.0,78,0.00,,,0.00,Weather View 32 v70,2013-09-17 10:40:00,
2013-09-17 04:45:00,59.0,52.1,30.16,East,90,10.0,17.0,78,0.00,,,0.00,Weather View 32 v70,2013-09-17 10:45:00,
2013-09-17 04:50:00,59.0,51.8,30.15,ENE,67,7.0,17.0,77,0.00,,,0.00,Weather View 32 v70,2013-09-17 10:50:00,
2013-09-17 04:55:00,60.0,52.8,30.15,East,90,12.0,17.0,77,0.00,,,0.00,Weather View 32 v70,2013-09-17 10:55:00,
2013-09-17 05:00:00,60.0,52.8,30.15,East,90,9.0,17.0,77,0.00,,,0.00,Weather View 32 v70,2013-09-17 11:00:00,
2013-09-17 05:05:00,60.0,52.8,30.15,ENE,67,11.0,17.0,77,0.00,,,0.00,Weather View 32 v70,2013-09-17 11:05:00,
2013-09-17 05:10:00,60.0,52.8,30.15,ENE,67,7.0,17.0,77,0.00,,,0.00,Weather View 32 v70,2013-09-17 11:10:00,
2013-09-17 05:15:00,60.0,52.8,30.15,ENE,67,10.0,17.0,77,0.00,,,0.00,Weather View 32 v70,2013-09-17 11:15:00,
2013-09-17 05:20:00,60.0,52.8,30.15,ENE,67,12.0,17.0,77,0.00,,,0.00,Weather View 32 v70,2013-09-17 11:20:00,
2013-09-17 05:25:00,59.0,51.8,30.15,ENE,67,11.0,17.0,77,0.00,,,0.00,Weather View 32 v70,2013-09-17 11:25:00,
2013-09-17 05:30:00,59.0,52.1,30.16,East,90,11.0,17.0,78,0.00,,,0.00,Weather View 32 v70,2013-09-17 11:30:00,
2013-09-17 05:35:00,59.0,52.1,30.16,East,90,6.0,17.0,78,0.00,,,0.00,Weather View 32 v70,2013-09-17 11:35:00,
2013-09-17 05:40:00,59.0,52.5,30.16,East,90,7.0,17.0,79,0.00,,,0.00,Weather View 32 v70,2013-09-17 11:40:00,
2013-09-17 05:45:00,59.0,52.5,30.16,East,90,12.0,17.0,79,0.00,,,0.00,Weather View 32 v70,2013-09-17 11:45:00,
2013-09-17 05:50:00,59.0,52.5,30.16,ENE,67,7.0,17.0,79,0.00,,,0.00,Weather View 32 v70,2013-09-17 11:50:00,
2013-09-17 05:55:00,59.0,52.5,30.16,ENE,67,9.0,17.0,79,0.00,,,0.00,Weather View 32 v70,2013-09-17 11:55:00,
2013-09-17 06:00:00,59.0,52.8,30.16,East,90,8.0,17.0,80,0.00,,,0.00,Weather View 32 v70,2013-09-17 12:00:00,
2013-09-17 06:05:00,59.0,52.8,30.16,East,90,3.0,17.0,80,0.00,,,0.00,Weather View 32 v70,2013-09-17 12:05:00,
2013-09-17 06:10:00,59.0,53.2,30.17,East,90,4.0,17.0,81,0.00,,,0.00,Weather View 32 v70,2013-09-17 12:10:00,
2013-09-17 06:15:00,58.0,52.5,30.17,East,90,4.0,17.0,82,0.00,,,0.00,Weather View 32 v70,2013-09-17 12:15:00,
2013-09-17 06:20:00,58.0,53.2,30.16,East,90,5.0,17.0,84,0.00,,,0.00,Weather View 32 v70,2013-09-17 12:20:00,
2013-09-17 06:25:00,58.0,52.9,30.16,ENE,67,8.0,17.0,83,0.00,,,0.00,Weather View 32 v70,2013-09-17 12:25:00,
2013-09-17 06:30:00,58.0,52.9,30.17,East,90,11.0,17.0,83,0.00,,,0.00,Weather View 32 v70,2013-09-17 12:30:00,
2013-09-17 06:35:00,58.0,52.5,30.17,East,90,6.0,15.0,82,0.00,,,0.00,Weather View 32 v70,2013-09-17 12:35:00,
2013-09-17 06:40:00,59.0,53.5,30.16,East,90,11.0,14.0,82,0.00,,,0.00,Weather View 32 v70,2013-09-17 12:40:00,
2013-09-17 06:45:00,59.0,53.5,30.16,East,90,3.0,14.0,82,0.00,,,0.00,Weather View 32 v70,2013-09-17 12:45:00,
2013-09-17 06:50:00,59.0,53.5,30.16,ESE,112,4.0,14.0,82,0.00,,,0.00,Weather View 32 v70,2013-09-17 12:50:00,
2013-09-17 06:55:00,59.0,53.5,30.16,East,90,5.0,12.0,82,0.00,,,0.00,Weather View 32 v70,2013-09-17 12:55:00,
2013-09-17 07:00:00,59.0,53.2,30.17,East,90,7.0,12.0,81,0.00,,,0.00,Weather View 32 v70,2013-09-17 13:00:00,
2013-09-17 07:05:00,59.0,52.8,30.17,East,90,5.0,12.0,80,0.00,,,0.00,Weather View 32 v70,2013-09-17 13:05:00,
2013-09-17 07:10:00,59.0,52.5,30.17,East,90,5.0,12.0,79,0.00,,,0.00,Weather View 32 v70,2013-09-17 13:10:00,
2013-09-17 07:15:00,60.0,52.8,30.17,East,90,5.0,12.0,77,0.00,,,0.00,Weather View 32 v70,2013-09-17 13:15:00,
2013-09-17 07:20:00,60.0,52.0,30.17,East,90,7.0,12.0,75,0.00,,,0.00,Weather View 32 v70,2013-09-17 13:20:00,
2013-09-17 07:25:00,60.0,51.7,30.17,East,90,5.0,12.0,74,0.00,,,0.00,Weather View 32 v70,2013-09-17 13:25:00,
2013-09-17 07:30:00,61.0,51.9,30.17,East,90,8.0,12.0,72,0.00,,,0.00,Weather View 32 v70,2013-09-17 13:30:00,
2013-09-17 07:35:00,61.0,51.1,30.17,East,90,7.0,12.0,70,0.00,,,0.00,Weather View 32 v70,2013-09-17 13:35:00,
2013-09-17 07:40:00,62.0,52.1,30.17,East,90,7.0,12.0,70,0.00,,,0.00,Weather View 32 v70,2013-09-17 13:40:00,
2013-09-17 07:45:00,62.0,52.8,30.17,East,90,5.0,12.0,72,0.00,,,0.00,Weather View 32 v70,2013-09-17 13:45:00,
2013-09-17 07:50:00,61.0,52.6,30.17,East,90,5.0,12.0,74,0.00,,,0.00,Weather View 32 v70,2013-09-17 13:50:00,
2013-09-17 07:55:00,61.0,53.0,30.17,East,90,6.0,12.0,75,0.00,,,0.00,Weather View 32 v70,2013-09-17 13:55:00,
2013-09-17 08:00:00,61.0,53.0,30.17,East,90,6.0,12.0,75,0.00,,,0.00,Weather View 32 v70,2013-09-17 14:00:00,
2013-09-17 08:05:00,61.0,53.0,30.17,East,90,8.0,12.0,75,0.00,,,0.00,Weather View 32 v70,2013-09-17 14:05:00,
2013-09-17 08:10:00,61.0,53.0,30.17,East,90,5.0,12.0,75,0.00,,,0.00,Weather View 32 v70,2013-09-17 14:10:00,
2013-09-17 08:14:00,61.0,52.6,30.17,East,90,7.0,12.0,74,0.00,,,0.00,Weather View 32 v70,2013-09-17 14:14:00,
2013-09-17 08:19:00,61.0,52.6,30.17,ENE,67,8.0,12.0,74,0.00,,,0.00,Weather View 32 v70,2013-09-17 14:19:00,
2013-09-17 08:24:00,62.0,52.5,30.17,East,90,5.0,12.0,71,0.00,,,0.00,Weather View 32 v70,2013-09-17 14:24:00,
2013-09-17 08:25:00,62.0,52.5,30.17,East,90,5.0,12.0,71,0.00,,,0.00,Weather View 32 v70,2013-09-17 14:25:00,
2013-09-17 08:29:00,63.0,52.2,30.16,East,90,10.0,12.0,68,0.00,,,0.00,Weather View 32 v70,2013-09-17 14:29:00,
2013-09-17 08:35:00,63.0,51.4,30.16,East,90,6.0,13.0,66,0.00,,,0.00,Weather View 32 v70,2013-09-17 14:35:00,
2013-09-17 08:40:00,64.0,52.0,30.17,East,90,4.0,13.0,65,0.00,,,0.00,Weather View 32 v70,2013-09-17 14:40:00,
2013-09-17 08:45:00,64.0,52.0,30.17,East,90,9.0,13.0,65,0.00,,,0.00,Weather View 32 v70,2013-09-17 14:45:00,
2013-09-17 08:50:00,64.0,52.4,30.16,East,90,9.0,13.0,66,0.00,,,0.00,Weather View 32 v70,2013-09-17 14:50:00,
2013-09-17 08:55:00,64.0,52.4,30.16,ESE,112,5.0,13.0,66,0.00,,,0.00,Weather View 32 v70,2013-09-17 14:55:00,
2013-09-17 09:00:00,65.0,52.5,30.16,East,90,11.0,14.0,64,0.00,,,0.00,Weather View 32 v70,2013-09-17 15:00:00,
2013-09-17 09:05:00,65.0,52.1,30.16,East,90,8.0,17.0,63,0.00,,,0.00,Weather View 32 v70,2013-09-17 15:05:00,
2013-09-17 09:10:00,65.0,52.1,30.16,East,90,11.0,17.0,63,0.00,,,0.00,Weather View 32 v70,2013-09-17 15:10:00,
2013-09-17 09:15:00,65.0,51.6,30.16,East,90,7.0,17.0,62,0.00,,,0.00,Weather View 32 v70,2013-09-17 15:15:00,
2013-09-17 09:20:00,66.0,51.7,30.16,East,90,9.0,17.0,60,0.00,,,0.00,Weather View 32 v70,2013-09-17 15:20:00,
2013-09-17 09:25:00,67.0,52.2,30.16,East,90,9.0,17.0,59,0.00,,,0.00,Weather View 32 v70,2013-09-17 15:25:00,
2013-09-17 09:30:00,68.0,52.6,30.15,East,90,10.0,17.0,58,0.00,,,0.00,Weather View 32 v70,2013-09-17 15:30:00,
2013-09-17 09:35:00,68.0,51.7,30.15,East,90,10.0,17.0,56,0.00,,,0.00,Weather View 32 v70,2013-09-17 15:35:00,
2013-09-17 09:40:00,69.0,52.6,30.15,ESE,112,10.0,17.0,56,0.00,,,0.00,Weather View 32 v70,2013-09-17 15:40:00,
2013-09-17 09:45:00,69.0,52.6,30.15,East,90,10.0,17.0,56,0.00,,,0.00,Weather View 32 v70,2013-09-17 15:45:00,
2013-09-17 09:50:00,69.0,52.1,30.15,East,90,10.0,17.0,55,0.00,,,0.00,Weather View 32 v70,2013-09-17 15:50:00,
2013-09-17 09:54:00,69.0,51.6,30.15,East,90,11.0,17.0,54,0.00,,,0.00,Weather View 32 v70,2013-09-17 15:54:00,
2013-09-17 09:55:00,69.0,51.6,30.15,East,90,11.0,17.0,54,0.00,,,0.00,Weather View 32 v70,2013-09-17 15:55:00,
2013-09-17 10:00:00,70.0,52.5,30.15,SE,135,4.0,17.0,54,0.00,,,0.00,Weather View 32 v70,2013-09-17 16:00:00,
2013-09-17 10:05:00,70.0,52.0,30.15,East,90,12.0,17.0,53,0.00,,,0.00,Weather View 32 v70,2013-09-17 16:05:00,
2013-09-17 10:10:00,70.0,52.0,30.14,East,90,10.0,17.0,53,0.00,,,0.00,Weather View 32 v70,2013-09-17 16:10:00,
2013-09-17 10:14:00,70.0,52.0,30.14,East,90,7.0,17.0,53,0.00,,,0.00,Weather View 32 v70,2013-09-17 16:14:00,
2013-09-17 10:20:00,71.0,52.4,30.14,East,90,10.0,17.0,52,0.00,,,0.00,Weather View 32 v70,2013-09-17 16:20:00,
2013-09-17 10:25:00,71.0,51.9,30.14,East,90,7.0,17.0,51,0.00,,,0.00,Weather View 32 v70,2013-09-17 16:25:00,
2013-09-17 10:30:00,72.0,52.8,30.14,ENE,67,8.0,15.0,51,0.00,,,0.00,Weather View 32 v70,2013-09-17 16:30:00,
2013-09-17 10:35:00,72.0,52.8,30.14,East,90,8.0,15.0,51,0.00,,,0.00,Weather View 32 v70,2013-09-17 16:35:00,
2013-09-17 10:40:00,73.0,52.7,30.14,East,90,5.0,15.0,49,0.00,,,0.00,Weather View 32 v70,2013-09-17 16:40:00,
2013-09-17 10:45:00,73.0,52.1,30.14,East,90,6.0,15.0,48,0.00,,,0.00,Weather View 32 v70,2013-09-17 16:45:00,
2013-09-17 10:50:00,73.0,52.1,30.13,East,90,6.0,15.0,48,0.00,,,0.00,Weather View 32 v70,2013-09-17 16:50:00,
2013-09-17 10:55:00,74.0,52.4,30.13,East,90,4.0,15.0,47,0.00,,,0.00,Weather View 32 v70,2013-09-17 16:55:00,
2013-09-17 11:00:00,74.0,51.2,30.12,ESE,112,10.0,15.0,45,0.00,,,0.00,Weather View 32 v70,2013-09-17 17:00:00,
2013-09-17 11:05:00,75.0,52.2,30.12,East,90,4.0,15.0,45,0.00,,,0.00,Weather View 32 v70,2013-09-17 17:05:00,
2013-09-17 11:10:00,75.0,50.9,30.12,SE,135,1.0,15.0,43,0.00,,,0.00,Weather View 32 v70,2013-09-17 17:10:00,
2013-09-17 11:15:00,76.0,50.5,30.12,East,90,7.0,15.0,41,0.00,,,0.00,Weather View 32 v70,2013-09-17 17:15:00,
2013-09-17 11:20:00,76.0,51.2,30.11,East,90,7.0,15.0,42,0.00,,,0.00,Weather View 32 v70,2013-09-17 17:20:00,
2013-09-17 11:25:00,76.0,52.4,30.11,SE,135,7.0,15.0,44,0.00,,,0.00,Weather View 32 v70,2013-09-17 17:25:00,
2013-09-17 11:30:00,76.0,52.4,30.10,East,90,4.0,15.0,44,0.00,,,0.00,Weather View 32 v70,2013-09-17 17:30:00,
2013-09-17 11:35:00,76.0,51.8,30.10,East,90,8.0,15.0,43,0.00,,,0.00,Weather View 32 v70,2013-09-17 17:35:00,
2013-09-17 11:40:00,77.0,51.4,30.10,East,90,10.0,15.0,41,0.00,,,0.00,Weather View 32 v70,2013-09-17 17:40:00,
2013-09-17 11:45:00,77.0,50.8,30.10,SE,135,9.0,15.0,40,0.00,,,0.00,Weather View 32 v70,2013-09-17 17:45:00,
2013-09-17 11:50:00,76.0,49.2,30.10,SE,135,8.0,15.0,39,0.00,,,0.00,Weather View 32 v70,2013-09-17 17:50:00,
2013-09-17 11:55:00,76.0,48.5,30.10,South,180,3.0,15.0,38,0.00,,,0.00,Weather View 32 v70,2013-09-17 17:55:00,
2013-09-17 12:00:00,77.0,48.7,30.09,East,90,9.0,15.0,37,0.00,,,0.00,Weather View 32 v70,2013-09-17 18:00:00,
2013-09-17 12:05:00,78.0,48.8,30.09,SE,135,7.0,15.0,36,0.00,,,0.00,Weather View 32 v70,2013-09-17 18:05:00,
2013-09-17 12:11:00,78.0,49.5,30.09,South,180,6.0,15.0,37,0.00,,,0.00,Weather View 32 v70,2013-09-17 18:11:00,
2013-09-17 12:16:00,78.0,49.5,30.09,South,180,5.0,15.0,37,0.00,,,0.00,Weather View 32 v70,2013-09-17 18:16:00,
2013-09-17 12:21:00,78.0,49.5,30.08,East,90,8.0,16.0,37,0.00,,,0.00,Weather View 32 v70,2013-09-17 18:21:00,
2013-09-17 12:26:00,77.0,48.7,30.08,East,90,9.0,16.0,37,0.00,,,0.00,Weather View 32 v70,2013-09-17 18:26:00,
2013-09-17 12:31:00,78.0,47.3,30.08,South,180,3.0,16.0,34,0.00,,,0.00,Weather View 32 v70,2013-09-17 18:31:00,
2013-09-17 12:36:00,78.0,47.3,30.08,SE,135,9.0,16.0,34,0.00,,,0.00,Weather View 32 v70,2013-09-17 18:36:00,
2013-09-17 12:41:00,78.0,47.3,30.07,SE,135,9.0,16.0,34,0.00,,,0.00,Weather View 32 v70,2013-09-17 18:41:00,
2013-09-17 12:46:00,78.0,46.5,30.07,East,90,5.0,16.0,33,0.00,,,0.00,Weather View 32 v70,2013-09-17 18:46:00,
2013-09-17 12:51:00,79.0,47.4,30.06,SSE,157,4.0,16.0,33,0.00,,,0.00,Weather View 32 v70,2013-09-17 18:51:00,
2013-09-17 12:56:00,79.0,46.5,30.06,South,180,7.0,16.0,32,0.00,,,0.00,Weather View 32 v70,2013-09-17 18:56:00,
2013-09-17 13:01:00,80.0,47.4,30.06,SE,135,4.0,16.0,32,0.00,,,0.00,Weather View 32 v70,2013-09-17 19:01:00,
2013-09-17 13:06:00,79.0,47.4,30.06,SE,135,7.0,16.0,33,0.00,,,0.00,Weather View 32 v70,2013-09-17 19:06:00,
2013-09-17 13:11:00,79.0,46.5,30.06,East,90,6.0,16.0,32,0.00,,,0.00,Weather View 32 v70,2013-09-17 19:11:00,
2013-09-17 13:16:00,79.0,45.7,30.06,East,90,13.0,16.0,31,0.00,,,0.00,Weather View 32 v70,2013-09-17 19:16:00,
2013-09-17 13:21:00,80.0,47.4,30.05,SE,135,2.0,16.0,32,0.00,,,0.00,Weather View 32 v70,2013-09-17 19:21:00,
2013-09-17 13:26:00,80.0,48.2,30.05,SSE,157,9.0,15.0,33,0.00,,,0.00,Weather View 32 v70,2013-09-17 19:26:00,
2013-09-17 13:31:00,80.0,46.6,30.05,SE,135,6.0,15.0,31,0.00,,,0.00,Weather View 32 v70,2013-09-17 19:31:00,
2013-09-17 13:36:00,79.0,47.4,30.05,South,180,4.0,15.0,33,0.00,,,0.00,Weather View 32 v70,2013-09-17 19:36:00,
2013-09-17 13:41:00,79.0,47.4,30.04,SE,135,6.0,15.0,33,0.00,,,0.00,Weather View 32 v70,2013-09-17 19:41:00,
2013-09-17 13:46:00,79.0,47.4,30.04,SE,135,13.0,18.0,33,0.00,,,0.00,Weather View 32 v70,2013-09-17 19:46:00,
2013-09-17 13:51:00,79.0,48.1,30.04,South,180,8.0,18.0,34,0.00,,,0.00,Weather View 32 v70,2013-09-17 19:51:00,
2013-09-17 13:56:00,80.0,47.4,30.04,ESE,112,5.0,18.0,32,0.00,,,0.00,Weather View 32 v70,2013-09-17 19:56:00,
2013-09-17 14:01:00,80.0,46.6,30.03,SE,135,11.0,18.0,31,0.00,,,0.00,Weather View 32 v70,2013-09-17 20:01:00,
2013-09-17 14:06:00,80.0,46.6,30.03,WSW,247,9.0,18.0,31,0.00,,,0.00,Weather View 32 v70,2013-09-17 20:06:00,
2013-09-17 14:11:00,80.0,46.6,30.02,East,90,10.0,18.0,31,0.00,,,0.00,Weather View 32 v70,2013-09-17 20:11:00,
2013-09-17 14:17:00,80.0,46.6,30.02,SE,135,10.0,18.0,31,0.00,,,0.00,Weather View 32 v70,2013-09-17 20:17:00,
2013-09-17 14:22:00,79.0,44.8,30.02,North,360,2.0,18.0,30,0.00,,,0.00,Weather View 32 v70,2013-09-17 20:22:00,
2013-09-17 14:27:00,80.0,46.6,30.01,SE,135,12.0,18.0,31,0.00,,,0.00,Weather View 32 v70,2013-09-17 20:27:00,
2013-09-17 14:32:00,80.0,46.6,30.01,SE,135,5.0,18.0,31,0.00,,,0.00,Weather View 32 v70,2013-09-17 20:32:00,
2013-09-17 14:37:00,81.0,47.4,30.00,SE,135,3.0,18.0,31,0.00,,,0.00,Weather View 32 v70,2013-09-17 20:37:00,
2013-09-17 14:42:00,80.0,45.7,30.00,SE,135,13.0,20.0,30,0.00,,,0.00,Weather View 32 v70,2013-09-17 20:42:00,
2013-09-17 14:47:00,80.0,46.6,30.00,ESE,112,6.0,20.0,31,0.00,,,0.00,Weather View 32 v70,2013-09-17 20:47:00,
2013-09-17 14:52:00,80.0,45.7,30.00,South,180,8.0,20.0,30,0.00,,,0.00,Weather View 32 v70,2013-09-17 20:52:00,
2013-09-17 14:57:00,80.0,44.8,30.00,SSW,202,3.0,20.0,29,0.00,,,0.00,Weather View 32 v70,2013-09-17 20:57:00,
2013-09-17 15:02:00,80.0,45.7,30.00,South,180,10.0,20.0,30,0.00,,,0.00,Weather View 32 v70,2013-09-17 21:02:00,
2013-09-17 15:07:00,80.0,44.8,29.99,South,180,4.0,20.0,29,0.00,,,0.00,Weather View 32 v70,2013-09-17 21:07:00,
2013-09-17 15:12:00,81.0,45.7,29.99,East,90,6.0,20.0,29,0.00,,,0.00,Weather View 32 v70,2013-09-17 21:12:00,
2013-09-17 15:17:00,82.0,46.5,29.98,East,90,7.0,20.0,29,0.00,,,0.00,Weather View 32 v70,2013-09-17 21:17:00,
2013-09-17 15:22:00,81.0,43.8,29.98,SE,135,13.0,20.0,27,0.00,,,0.00,Weather View 32 v70,2013-09-17 21:22:00,
2013-09-17 15:27:00,80.0,44.8,29.98,SE,135,15.0,20.0,29,0.00,,,0.00,Weather View 32 v70,2013-09-17 21:27:00,
2013-09-17 15:32:00,79.0,43.9,29.98,SE,135,8.0,20.0,29,0.00,,,0.00,Weather View 32 v70,2013-09-17 21:32:00,
2013-09-17 15:37:00,80.0,44.8,29.98,South,180,1.0,20.0,29,0.00,,,0.00,Weather View 32 v70,2013-09-17 21:37:00,
2013-09-17 15:42:00,80.0,44.8,29.98,South,180,5.0,20.0,29,0.00,,,0.00,Weather View 32 v70,2013-09-17 21:42:00,
2013-09-17 15:47:00,81.0,43.8,29.98,South,180,10.0,17.0,27,0.00,,,0.00,Weather View 32 v70,2013-09-17 21:47:00,
2013-09-17 15:52:00,81.0,42.8,29.98,SSW,202,6.0,17.0,26,0.00,,,0.00,Weather View 32 v70,2013-09-17 21:52:00,
2013-09-17 15:57:00,82.0,42.6,29.97,South,180,5.0,17.0,25,0.00,,,0.00,Weather View 32 v70,2013-09-17 21:57:00,
2013-09-17 16:03:00,82.0,44.6,29.97,WSW,247,5.0,17.0,27,0.00,,,0.00,Weather View 32 v70,2013-09-17 22:03:00,
2013-09-17 16:08:00,83.0,43.4,29.96,South,180,6.0,17.0,25,0.00,,,0.00,Weather View 32 v70,2013-09-17 22:08:00,
2013-09-17 16:13:00,81.0,43.8,29.96,SSE,157,3.0,17.0,27,0.00,,,0.00,Weather View 32 v70,2013-09-17 22:13:00,
2013-09-17 16:18:00,81.0,43.8,29.96,SW,225,2.0,17.0,27,0.00,,,0.00,Weather View 32 v70,2013-09-17 22:18:00,
2013-09-17 16:23:00,82.0,42.6,29.96,SE,135,1.0,17.0,25,0.00,,,0.00,Weather View 32 v70,2013-09-17 22:23:00,
2013-09-17 16:28:00,82.0,42.6,29.95,SSW,202,3.0,15.0,25,0.00,,,0.00,Weather View 32 v70,2013-09-17 22:28:00,
2013-09-17 16:34:00,83.0,44.5,29.95,SW,225,8.0,15.0,26,0.00,,,0.00,Weather View 32 v70,2013-09-17 22:34:00,
2013-09-17 16:39:00,83.0,44.5,29.95,South,180,7.0,15.0,26,0.00,,,0.00,Weather View 32 v70,2013-09-17 22:39:00,
2013-09-17 16:44:00,83.0,44.5,29.95,South,180,6.0,15.0,26,0.00,,,0.00,Weather View 32 v70,2013-09-17 22:44:00,
2013-09-17 16:49:00,83.0,43.4,29.94,South,180,7.0,15.0,25,0.00,,,0.00,Weather View 32 v70,2013-09-17 22:49:00,
2013-09-17 16:54:00,83.0,44.5,29.94,SW,225,4.0,15.0,26,0.00,,,0.00,Weather View 32 v70,2013-09-17 22:54:00,
2013-09-17 16:59:00,83.0,45.5,29.94,SSE,157,5.0,15.0,27,0.00,,,0.00,Weather View 32 v70,2013-09-17 22:59:00,
2013-09-17 17:04:00,83.0,44.5,29.94,SE,135,4.0,15.0,26,0.00,,,0.00,Weather View 32 v70,2013-09-17 23:04:00,
2013-09-17 17:09:00,83.0,44.5,29.94,SW,225,6.0,16.0,26,0.00,,,0.00,Weather View 32 v70,2013-09-17 23:09:00,
2013-09-17 17:14:00,82.0,45.6,29.94,SSE,157,2.0,16.0,28,0.00,,,0.00,Weather View 32 v70,2013-09-17 23:14:00,
2013-09-17 17:19:00,81.0,44.7,29.94,South,180,5.0,16.0,28,0.00,,,0.00,Weather View 32 v70,2013-09-17 23:19:00,
2013-09-17 17:24:00,81.0,45.7,29.94,SW,225,1.0,16.0,29,0.00,,,0.00,Weather View 32 v70,2013-09-17 23:24:00,
2013-09-17 17:29:00,81.0,46.5,29.95,SSE,157,6.0,16.0,30,0.00,,,0.00,Weather View 32 v70,2013-09-17 23:29:00,
2013-09-17 17:34:00,80.0,44.8,29.95,SE,135,5.0,16.0,29,0.00,,,0.00,Weather View 32 v70,2013-09-17 23:34:00,
2013-09-17 17:39:00,79.0,45.7,29.95,SE,135,5.0,16.0,31,0.00,,,0.00,Weather View 32 v70,2013-09-17 23:39:00,
2013-09-17 17:44:00,79.0,45.7,29.95,SE,135,6.0,16.0,31,0.00,,,0.00,Weather View 32 v70,2013-09-17 23:44:00,
2013-09-17 17:49:00,79.0,46.5,29.96,SE,135,7.0,16.0,32,0.00,,,0.00,Weather View 32 v70,2013-09-17 23:49:00,
2013-09-17 17:54:00,78.0,44.8,29.96,ESE,112,4.0,16.0,31,0.00,,,0.00,Weather View 32 v70,2013-09-17 23:54:00,
2013-09-17 17:59:00,78.0,45.7,29.95,SE,135,5.0,16.0,32,0.00,,,0.00,Weather View 32 v70,2013-09-17 23:59:00,
2013-09-17 18:04:00,78.0,45.7,29.95,SE,135,4.0,16.0,32,0.00,,,0.00,Weather View 32 v70,2013-09-18 00:04:00,
2013-09-17 18:09:00,78.0,45.7,29.95,SE,135,4.0,13.0,32,0.00,,,0.00,Weather View 32 v70,2013-09-18 00:09:00,
2013-09-17 18:14:00,78.0,46.5,29.95,SE,135,3.0,10.0,33,0.00,,,0.00,Weather View 32 v70,2013-09-18 00:14:00,
2013-09-17 18:19:00,78.0,45.7,29.95,ESE,112,4.0,10.0,32,0.00,,,0.00,Weather View 32 v70,2013-09-18 00:19:00,
2013-09-17 18:24:00,78.0,45.7,29.95,SE,135,7.0,10.0,32,0.00,,,0.00,Weather View 32 v70,2013-09-18 00:24:00,
2013-09-17 18:29:00,78.0,46.5,29.95,SE,135,7.0,10.0,33,0.00,,,0.00,Weather View 32 v70,2013-09-18 00:29:00,
2013-09-17 18:34:00,77.0,46.4,29.95,SE,135,4.0,10.0,34,0.00,,,0.00,Weather View 32 v70,2013-09-18 00:34:00,
2013-09-17 18:39:00,77.0,46.4,29.95,SE,135,5.0,10.0,34,0.00,,,0.00,Weather View 32 v70,2013-09-18 00:39:00,
2013-09-17 18:45:00,77.0,47.2,29.95,SE,135,6.0,10.0,35,0.00,,,0.00,Weather View 32 v70,2013-09-18 00:45:00,
2013-09-17 18:50:00,77.0,47.2,29.94,SE,135,3.0,10.0,35,0.00,,,0.00,Weather View 32 v70,2013-09-18 00:50:00,
2013-09-17 18:55:00,76.0,47.0,29.94,SE,135,5.0,10.0,36,0.00,,,0.00,Weather View 32 v70,2013-09-18 00:55:00,
2013-09-17 19:00:00,76.0,47.8,29.95,ESE,112,4.0,10.0,37,0.00,,,0.00,Weather View 32 v70,2013-09-18 01:00:00,
2013-09-17 19:05:00,76.0,47.8,29.95,SE,135,3.0,10.0,37,0.00,,,0.00,Weather View 32 v70,2013-09-18 01:05:00,
2013-09-17 19:10:00,76.0,48.5,29.95,SE,135,4.0,10.0,38,0.00,,,0.00,Weather View 32 v70,2013-09-18 01:10:00,
2013-09-17 19:15:00,75.0,48.3,29.95,SE,135,3.0,10.0,39,0.00,,,0.00,Weather View 32 v70,2013-09-18 01:15:00,
2013-09-17 19:20:00,75.0,48.3,29.95,SE,135,3.0,10.0,39,0.00,,,0.00,Weather View 32 v70,2013-09-18 01:20:00,
2013-09-17 19:25:00,75.0,49.6,29.95,SE,135,3.0,10.0,41,0.00,,,0.00,Weather View 32 v70,2013-09-18 01:25:00,
2013-09-17 19:30:00,75.0,49.6,29.95,SE,135,2.0,10.0,41,0.00,,,0.00,Weather View 32 v70,2013-09-18 01:30:00,
2013-09-17 19:35:00,74.0,49.4,29.95,SE,135,3.0,10.0,42,0.00,,,0.00,Weather View 32 v70,2013-09-18 01:35:00,
2013-09-17 19:40:00,74.0,50.0,29.95,SE,135,3.0,10.0,43,0.00,,,0.00,Weather View 32 v70,2013-09-18 01:40:00,
2013-09-17 19:45:00,74.0,50.0,29.95,SE,135,3.0,10.0,43,0.00,,,0.00,Weather View 32 v70,2013-09-18 01:45:00,
2013-09-17 19:50:00,74.0,50.0,29.95,SE,135,4.0,9.0,43,0.00,,,0.00,Weather View 32 v70,2013-09-18 01:50:00,
2013-09-17 19:55:00,73.0,49.7,29.95,SE,135,2.0,9.0,44,0.00,,,0.00,Weather View 32 v70,2013-09-18 01:55:00,
2013-09-17 20:00:00,73.0,50.3,29.96,SE,135,3.0,9.0,45,0.00,,,0.00,Weather View 32 v70,2013-09-18 02:00:00,
2013-09-17 20:05:00,73.0,50.3,29.96,ESE,112,6.0,9.0,45,0.00,,,0.00,Weather View 32 v70,2013-09-18 02:05:00,
2013-09-17 20:10:00,73.0,50.3,29.97,East,90,5.0,9.0,45,0.00,,,0.00,Weather View 32 v70,2013-09-18 02:10:00,
2013-09-17 20:15:00,73.0,50.3,29.97,East,90,5.0,9.0,45,0.00,,,0.00,Weather View 32 v70,2013-09-18 02:15:00,
2013-09-17 20:20:00,73.0,50.3,29.97,ESE,112,5.0,8.0,45,0.00,,,0.00,Weather View 32 v70,2013-09-18 02:20:00,
2013-09-17 20:25:00,73.0,50.3,29.97,East,90,2.0,8.0,45,0.00,,,0.00,Weather View 32 v70,2013-09-18 02:25:00,
2013-09-17 20:30:00,73.0,50.3,29.98,SE,135,10.0,12.0,45,0.00,,,0.00,Weather View 32 v70,2013-09-18 02:30:00,
2013-09-17 20:35:00,73.0,50.9,29.98,SE,135,3.0,12.0,46,0.00,,,0.00,Weather View 32 v70,2013-09-18 02:35:00,
2013-09-17 20:40:00,73.0,50.9,29.97,SE,135,6.0,12.0,46,0.00,,,0.00,Weather View 32 v70,2013-09-18 02:40:00,
2013-09-17 20:45:00,73.0,51.5,29.97,SE,135,9.0,12.0,47,0.00,,,0.00,Weather View 32 v70,2013-09-18 02:45:00,
2013-09-17 20:50:00,72.0,50.6,29.96,SE,135,4.0,12.0,47,0.00,,,0.00,Weather View 32 v70,2013-09-18 02:50:00,
2013-09-17 20:55:00,72.0,51.2,29.96,SE,135,5.0,12.0,48,0.00,,,0.00,Weather View 32 v70,2013-09-18 02:55:00,
2013-09-17 21:00:00,72.0,51.2,29.97,SE,135,5.0,12.0,48,0.00,,,0.00,Weather View 32 v70,2013-09-18 03:00:00,
2013-09-17 21:05:00,72.0,51.7,29.97,SE,135,3.0,12.0,49,0.00,,,0.00,Weather View 32 v70,2013-09-18 03:05:00,
2013-09-17 21:10:00,72.0,52.3,29.97,East,90,8.0,12.0,50,0.00,,,0.00,Weather View 32 v70,2013-09-18 03:10:00,
2013-09-17 21:15:00,72.0,52.3,29.97,ESE,112,4.0,12.0,50,0.00,,,0.00,Weather View 32 v70,2013-09-18 03:15:00,
2013-09-17 21:20:00,72.0,52.3,29.98,SE,135,6.0,12.0,50,0.00,,,0.00,Weather View 32 v70,2013-09-18 03:20:00,
2013-09-17 21:25:00,72.0,52.3,29.98,ESE,112,3.0,12.0,50,0.00,,,0.00,Weather View 32 v70,2013-09-18 03:25:00,
2013-09-17 21:30:00,71.0,51.4,29.98,East,90,5.0,12.0,50,0.00,,,0.00,Weather View 32 v70,2013-09-18 03:30:00,
2013-09-17 21:35:00,71.0,51.9,29.98,ESE,112,5.0,12.0,51,0.00,,,0.00,Weather View 32 v70,2013-09-18 03:35:00,
2013-09-17 21:40:00,71.0,51.9,29.98,SE,135,4.0,12.0,51,0.00,,,0.00,Weather View 32 v70,2013-09-18 03:40:00,
2013-09-17 21:45:00,71.0,51.9,29.98,East,90,5.0,12.0,51,0.00,,,0.00,Weather View 32 v70,2013-09-18 03:45:00,
2013-09-17 21:50:00,71.0,52.4,29.98,East,90,5.0,12.0,52,0.00,,,0.00,Weather View 32 v70,2013-09-18 03:50:00,
2013-09-17 21:55:00,71.0,52.4,29.98,East,90,4.0,11.0,52,0.00,,,0.00,Weather View 32 v70,2013-09-18 03:55:00,
2013-09-17 22:00:00,71.0,52.4,29.98,East,90,6.0,11.0,52,0.00,,,0.00,Weather View 32 v70,2013-09-18 04:00:00,
2013-09-17 22:01:00,71.0,52.4,29.98,East,90,7.0,11.0,52,0.00,,,0.00,Weather View 32 v70,2013-09-18 04:01:00,
2013-09-17 22:06:00,71.0,52.4,29.98,SE,135,3.0,14.0,52,0.00,,,0.00,Weather View 32 v70,2013-09-18 04:06:00,
2013-09-17 22:07:00,71.0,51.9,29.98,SE,135,1.0,14.0,51,0.00,,,0.00,Weather View 32 v70,2013-09-18 04:07:00,
2013-09-17 22:11:00,71.0,51.9,29.98,SE,135,5.0,14.0,51,0.00,,,0.00,Weather View 32 v70,2013-09-18 04:11:00,
2013-09-17 22:16:00,71.0,51.9,29.98,SE,135,8.0,14.0,51,0.00,,,0.00,Weather View 32 v70,2013-09-18 04:16:00,
2013-09-17 22:21:00,71.0,51.9,29.98,SSE,157,10.0,14.0,51,0.00,,,0.00,Weather View 32 v70,2013-09-18 04:21:00,
2013-09-17 22:26:00,71.0,51.4,29.98,SE,135,4.0,17.0,50,0.00,,,0.00,Weather View 32 v70,2013-09-18 04:26:00,
2013-09-17 22:31:00,71.0,51.9,29.98,South,180,5.0,17.0,51,0.00,,,0.00,Weather View 32 v70,2013-09-18 04:31:00,
2013-09-17 22:36:00,71.0,51.4,29.98,SE,135,8.0,17.0,50,0.00,,,0.00,Weather View 32 v70,2013-09-18 04:36:00,
2013-09-17 22:41:00,71.0,51.4,29.98,SE,135,7.0,17.0,50,0.00,,,0.00,Weather View 32 v70,2013-09-18 04:41:00,
2013-09-17 22:46:00,71.0,51.4,29.98,SE,135,12.0,17.0,50,0.00,,,0.00,Weather View 32 v70,2013-09-18 04:46:00,
2013-09-17 22:51:00,71.0,51.4,29.98,SSE,157,4.0,17.0,50,0.00,,,0.00,Weather View 32 v70,2013-09-18 04:51:00,
2013-09-17 22:56:00,71.0,51.4,29.99,SSW,202,8.0,17.0,50,0.00,,,0.00,Weather View 32 v70,2013-09-18 04:56:00,
2013-09-17 23:01:00,71.0,51.9,29.99,SE,135,6.0,17.0,51,0.00,,,0.00,Weather View 32 v70,2013-09-18 05:01:00,
2013-09-17 23:06:00,71.0,51.4,29.99,South,180,8.0,18.0,50,0.00,,,0.00,Weather View 32 v70,2013-09-18 05:06:00,
2013-09-17 23:11:00,70.0,51.0,29.99,SSE,157,10.0,18.0,51,0.00,,,0.00,Weather View 32 v70,2013-09-18 05:11:00,
2013-09-17 23:16:00,70.0,51.0,29.99,South,180,10.0,18.0,51,0.00,,,0.00,Weather View 32 v70,2013-09-18 05:16:00,
2013-09-17 23:21:00,70.0,51.0,29.99,SSW,202,8.0,18.0,51,0.00,,,0.00,Weather View 32 v70,2013-09-18 05:21:00,
2013-09-17 23:26:00,70.0,51.0,29.99,South,180,9.0,18.0,51,0.00,,,0.00,Weather View 32 v70,2013-09-18 05:26:00,
2013-09-17 23:31:00,70.0,51.5,29.99,SSE,157,11.0,18.0,52,0.00,,,0.00,Weather View 32 v70,2013-09-18 05:31:00,
2013-09-17 23:36:00,70.0,52.0,29.99,SSE,157,8.0,18.0,53,0.00,,,0.00,Weather View 32 v70,2013-09-18 05:36:00,
2013-09-17 23:41:00,70.0,52.0,29.99,South,180,13.0,18.0,53,0.00,,,0.00,Weather View 32 v70,2013-09-18 05:41:00,
2013-09-17 23:46:00,69.0,51.6,29.99,South,180,7.0,18.0,54,0.00,,,0.00,Weather View 32 v70,2013-09-18 05:46:00,
2013-09-17 23:52:00,69.0,51.6,30.00,SSE,157,6.0,18.0,54,0.00,,,0.00,Weather View 32 v70,2013-09-18 05:52:00,
2013-09-17 23:57:00,70.0,52.0,30.00,South,180,10.0,18.0,53,0.00,,,0.00,Weather View 32 v70,2013-09-18 05:57:00,